CAPE
1304 1424 2247 2304 1932 2116 2146 2233 2356 2177 2359 2051 1333 1224 1279 764 183 276 696 131 365 243 9 3 142 419 122 151 322 414 338 247 210 400 477 632 416 0 0 10 272 121 266
1184 1282 2096 2349 2261 2345 2461 2439 2317 2491 2254 2031 1708 1433 1203 607 171 463 775 576 219 116 4 18 471 288 77 197 187 228 89 135 258 270 415 411 477 11 0 0 214 0 66
1128 1436 1538 2313 2174 2259 2242 2264 2201 2370 2115 1829 1857 1400 1351 642 291 416 880 722 616 294 381 479 266 19 53 68 10 52 74 126 134 66 58 312 395 443 352 319 459 443 412
1204 1584 1356 2078 2266 2343 2388 2251 2105 2212 2079 1790 1701 1503 1161 648 224 347 974 866 856 746 590 724 562 180 1 11 31 68 60 64 22 2 60 115 44 108 134 118 163 107 35
1391 1697 1255 1816 2046 2167 2309 2216 2122 2070 1957 1870 1934 1686 1360 583 332 393 1126 983 872 499 677 282 78 19 0 4 35 12 0 0 0 1 6 18 14 2 5 1 1 0 0
1486 1634 1531 1734 1861 2106 1876 2050 2145 2189 2143 1865 1711 1591 1312 1191 710 1211 970 873 852 688 466 65 10 0 0 0 0 0 0 0 0 3 0 0 3 1 4 3 1 1 0
1103 1459 1498 1756 1694 1801 2031 1955 1945 2060 2028 1938 1874 1449 1254 1490 1602 1320 1115 916 772 544 330 35 19 0 0 0 0 0 0 0 0 0 0 0 0 0 0 0 0 0 0
1612 945 1294 1334 1568 1532 1803 1691 1865 1997 2053 2008 1916 1741 1413 1514 1680 1317 1248 808 693 322 88 58 22 38 0 21 0 0 0 0 0 0 0 0 0 0 0 0 0 0 0
715 856 1272 1200 1114 1013 1140 1211 1433 1757 1863 1709 1770 1619 1373 1146 1175 1145 1112 757 504 297 243 201 66 67 22 24 0 0 0 0 0 0 0 0 0 1 0 0 0 0 0
129 402 306 988 916 865 1054 930 1051 1371 1432 1468 1492 1339 956 823 838 927 509 529 431 219 124 219 250 55 47 212 49 0 0 0 0 0 0 0 0 1 0 0 0 0 0
38 71 244 288 847 709 773 851 950 1048 1065 1033 1026 964 946 847 802 715 434 228 192 114 72 243 341 190 60 25 47 0 0 0 0 0 0 0 0 1 0 0 0 0 0
0 10 34 208 236 833 759 808 926 873 974 870 907 928 996 775 783 628 474 197 233 121 63 233 308 130 0 0 0 0 0 0 0 0 0 0 0 2 0 0 0 0 0
0 0 0 12 119 185 997 966 575 497 785 657 653 700 714 622 764 851 842 734 461 5 1 13 35 1 0 0 0 0 0 0 0 0 0 0 0 57 5 0 0 0 0
0 0 0 0 0 45 376 914 748 268 209 551 631 731 734 688 617 656 603 648 436 195 46 1 0 0 0 0 0 0 0 0 0 0 0 0 0 0 83 8 0 1 7
0 0 0 0 0 0 41 288 776 585 350 339 474 481 543 616 561 560 567 520 504 240 169 15 0 0 0 0 0 0 0 0 0 0 0 0 0 0 22 165 169 174 185
0 0 0 0 0 0 0 75 474 640 554 371 415 328 379 377 518 476 465 440 390 257 259 109 1 0 0 0 0 0 0 0 0 0 0 0 0 0 0 40 231 371 343
0 0 0 0 0 0 0 1 202 566 834 678 654 457 307 672 561 537 589 386 251 240 244 127 34 0 0 0 0 0 0 0 0 0 0 0 0 0 0 0 70 135 290
0 0 0 0 0 0 0 0 77 606 419 732 641 554 537 415 694 731 727 372 305 256 359 174 125 81 13 0 0 0 0 0 0 0 0 0 0 0 0 0 70 148 290
0 0 0 0 0 0 0 0 6 138 413 391 613 372 334 311 484 567 1009 550 455 386 408 84 100 101 167 22 5 0 0 0 0 0 0 0 0 5 25 19 18 37 103
0 0 0 0 0 0 0 0 12 111 130 263 501 411 185 156 212 428 492 576 474 415 261 83 70 38 93 101 7 0 0 0 0 0 0 0 0 10 47 75 74 52 48
0 0 0 0 0 0 0 0 7 12 66 178 348 436 365 265 119 288 331 178 251 290 342 222 203 200 25 30 14 9 0 9 5 12 16 20 4 34 69 87 85 96 70
0 0 0 0 0 0 0 0 0 13 16 257 247 338 341 367 310 142 237 316 252 220 257 219 194 179 151 42 22 18 0 0 0 1 27 20 48 68 86 73 76 91 131
0 0 0 0 0 0 0 4 24 25 93 112 261 481 435 390 385 324 221 231 264 376 218 269 291 237 119 44 9 4 0 0 0 7 55 77 65 78 102 87 77 98 140
0 0 0 0 0 0 0 3 36 26 27 37 254 359 444 444 413 337 358 298 290 195 139 322 443 459 237 71 13 44 50 21 28 1 13 57 88 126 141 108 74 66 87
7 0 0 0 0 0 0 0 5 12 59 145 329 348 368 321 278 364 391 379 186 207 170 207 261 322 331 242 200 46 67 165 75 92 1 47 69 75 80 61 61 81 63
16 41 46 0 0 0 0 2 2 42 71 213 266 289 254 205 153 121 143 219 324 310 176 116 170 117 237 150 102 102 47 52 132 130 63 78 224 146 93 57 20 38 39
CIN
-30 -35 -4 -2 -2 0 0 0 0 0 0 0 0 0 0 -34 -218 -145 -36 -257 -126 -188 0 -124 -224 -120 -238 -214 -124 -97 -116 -142 -150 -87 -71 -40 -85 0 0 -86 -113 -152 -90
-43 -45 -11 -1 0 0 0 0 -1 0 0 0 -2 0 0 -60 -218 -84 -28 -69 -175 -268 -129 -369 -116 -165 -308 -196 -191 -154 -220 -187 -133 -124 -79 -72 -56 -153 0 0 -111 0 -153
-43 -41 -32 0 0 0 0 0 -1 0 0 -1 -2 0 0 -38 -142 -86 -18 -38 -54 -144 -124 -95 -189 -335 -299 -321 -425 -299 -240 -186 -188 -264 -244 -92 -68 -58 -70 -77 -47 -43 -47
-28 -11 -27 -3 0 0 0 0 0 0 0 -1 -3 -2 0 -22 -159 -97 -8 -18 -18 -39 -62 -42 -79 -227 0 -146 -363 -302 -290 -264 -332 -42 -158 -203 -289 -200 -165 -174 -132 -116 -85
-3 0 -2 -6 -2 0 0 -1 0 0 0 -1 -1 -2 0 -21 -99 -73 0 -9 -5 -65 -41 -134 -275 -350 0 0 -346 -101 0 0 0 0 0 0 0 0 0 0 0 0 0
0 0 -5 -8 -5 -1 -3 -2 -1 0 0 -2 -1 0 0 0 -1 0 -4 -8 -12 -23 -67 -260 -360 0 0 0 0 0 0 0 0 0 0 0 0 0 0 0 0 0 0
-9 0 0 -5 -4 -2 -1 -2 -2 -1 -1 -1 0 0 0 0 0 0 0 -4 -12 -39 -103 -308 -346 0 0 0 0 0 0 0 0 0 0 0 0 0 0 0 0 0 0
0 -8 0 -5 -5 -5 -2 -4 -2 -1 0 0 0 0 0 0 0 0 0 -5 -12 -58 -205 -273 -352 -322 0 -309 0 0 0 0 0 0 0 0 0 0 0 0 0 0 0
-7 -6 0 0 -1 -9 -11 -7 -6 -4 -1 -2 0 0 -1 -3 -4 0 0 -8 -10 -49 -90 -114 -254 -270 -61 -168 0 0 0 0 0 0 0 0 0 0 0 0 0 0 0
-57 -16 -43 0 0 0 0 -7 -10 -5 -3 -2 -1 -1 -3 -5 -4 -9 -32 -17 -8 -47 -120 -86 -64 -246 -23 -143 -24 0 0 0 0 0 0 0 0 0 0 0 0 0 0
-166 -111 -19 -31 0 0 0 -2 -6 -7 -9 -10 -4 -4 -5 0 0 0 -5 -11 -38 -74 -107 -40 -20 -80 -91 -10 -21 0 0 0 0 0 0 0 0 0 0 0 0 0 0
0 -33 -70 -18 -18 0 0 0 0 0 0 0 0 0 0 0 0 0 -2 -11 -25 -27 -44 -9 -6 -74 0 0 0 0 0 0 0 0 0 0 0 0 0 0 0 0 0
0 0 0 -19 -61 -24 0 0 0 0 0 0 0 0 0 0 0 0 0 -2 0 -28 0 -9 -24 -4 0 0 0 0 0 0 0 0 0 0 0 0 0 0 0 0 0
0 0 0 0 0 -106 -12 0 0 0 -5 0 0 0 0 0 0 0 0 0 0 -24 -64 0 0 0 0 0 0 0 0 0 0 0 0 0 0 0 0 0 0 0 -3
0 0 0 0 0 0 -15 -21 0 0 0 0 0 0 0 0 0 0 0 0 0 -34 -67 -20 0 -7 0 0 0 0 0 0 0 0 0 0 0 0 -5 -93 -86 -77 -11
0 0 0 0 0 0 0 -38 -12 -4 0 -1 0 -2 0 -8 -1 0 0 0 -1 -31 -40 -101 -9 0 0 0 0 0 0 0 0 0 0 0 0 0 0 -28 -54 -13 -9
0 0 0 0 0 0 0 -1 -49 -2 0 0 0 -2 -4 0 0 0 0 0 -33 -41 -49 -84 -6 0 0 0 0 0 0 0 0 0 0 0 0 0 0 0 -40 -22 -25
0 0 0 0 0 0 0 0 -32 0 0 0 0 -2 -5 -5 0 0 0 -1 -16 -27 -3 -20 -1 -14 -1 0 0 0 0 0 0 0 0 0 0 0 0 0 -85 -43 -37
0 0 0 0 0 0 0 0 0 -19 -5 -4 0 -3 -17 -12 -1 -5 0 0 -3 -1 0 -20 -3 -4 -2 -31 -92 0 0 0 0 0 0 0 0 -34 -30 -54 -49 -109 -96
0 0 0 0 0 0 0 0 0 -19 -30 -18 0 -3 -7 -20 -13 0 0 -1 0 -2 -12 -5 -4 -9 -1 -3 -34 0 0 0 0 0 0 0 0 -92 -42 -26 -30 -50 -36
0 0 0 0 0 0 0 0 0 0 -49 -32 -14 -1 -5 -3 -34 -7 -1 -8 -12 -2 0 -27 -2 0 -28 -27 -35 -108 0 -129 -127 -114 -102 -147 -112 -82 -62 -65 -68 -48 -40
0 0 0 0 0 0 0 0 0 0 -6 -32 -39 -10 -8 -10 -9 -48 -26 -19 -10 -14 0 -4 0 0 0 -24 -33 -40 0 0 0 -26 -79 -104 -119 -68 -79 -97 -80 -78 -58
0 0 0 0 0 0 0 0 0 -1 -8 -25 -7 -31 -17 -20 -8 -21 -4 -13 -18 -5 -20 -3 0 0 -7 -11 -66 -15 0 0 0 -25 -45 -87 -93 -72 -102 -108 -115 -102 -90
0 0 0 0 0 0 0 0 0 -1 0 -30 -10 -15 -6 -4 -6 -18 -6 -9 -11 -27 -32 -3 0 -1 0 0 -14 -10 -9 -3 -2 -2 -90 -93 -105 -64 -87 -106 -50 -136 -118
0 0 0 0 0 0 0 0 0 0 0 -5 0 -1 -3 -14 -28 -8 0 -1 -16 -18 -19 -4 0 0 0 0 0 -4 -13 0 -9 -8 -29 -25 -40 -16 -23 -110 -129 -93 -155
0 -3 -18 0 0 0 0 -1 0 0 -1 -1 0 0 -12 -26 -32 -36 -33 -20 -3 -7 -28 -49 -29 -22 -4 -1 0 0 -2 -4 0 -7 -42 -22 -6 -25 -49 -10 -108 -33 -63
Wind_Speed
19 26 27 30 29 30 28 24 22 21 20 20 18 18 18 16 15 14 10 9 7 9 nan nan 11 13 11 11 9 10 13 15 16 14 12 14 17 nan nan nan 16 18 16
12 11 26 34 31 33 33 31 28 28 25 22 22 20 19 17 16 14 12 11 8 9 nan nan 8 11 nan 10 9 10 nan 13 13 12 13 14 14 nan nan nan 12 nan nan
15 12 19 23 30 34 36 37 32 31 29 26 25 23 20 19 17 15 12 15 12 11 8 9 10 nan nan nan nan nan nan 10 10 nan nan 14 16 16 16 15 17 18 18
20 18 18 22 23 22 33 40 38 35 31 29 27 25 22 20 18 15 13 14 15 14 10 15 15 13 nan nan nan nan nan nan nan nan nan 13 nan 17 18 19 19 19 nan
23 20 19 25 25 23 22 27 37 39 34 31 29 27 24 22 19 17 15 16 16 19 14 17 nan nan nan nan nan nan nan nan nan nan nan nan nan nan nan nan nan nan nan
27 23 27 22 24 25 23 23 25 32 36 35 32 29 25 25 22 19 18 20 20 22 22 nan nan nan nan nan nan nan nan nan nan nan nan nan nan nan nan nan nan nan nan
36 28 26 23 22 25 24 23 23 22 27 34 33 31 28 26 23 24 23 25 25 24 22 nan nan nan nan nan nan nan nan nan nan nan nan nan nan nan nan nan nan nan nan
44 34 28 30 24 23 24 23 22 19 18 21 28 32 33 28 26 28 27 27 28 25 nan nan nan nan nan nan nan nan nan nan nan nan nan nan nan nan nan nan nan nan nan
53 44 36 31 29 25 23 23 22 22 18 16 20 22 28 30 32 32 30 31 29 25 23 21 nan nan nan nan nan nan nan nan nan nan nan nan nan nan nan nan nan nan nan
53 54 47 38 33 26 27 28 24 22 22 22 21 20 22 23 29 33 33 31 30 27 24 24 22 nan nan 22 nan nan nan nan nan nan nan nan nan nan nan nan nan nan nan
nan nan 53 48 39 32 28 31 30 27 25 25 24 23 22 19 21 25 31 36 32 31 nan 26 26 26 nan nan nan nan nan nan nan nan nan nan nan nan nan nan nan nan nan
nan nan nan 50 47 41 38 33 31 30 27 26 24 22 20 17 19 19 28 34 36 35 nan 31 30 31 nan nan nan nan nan nan nan nan nan nan nan nan nan nan nan nan nan
nan nan nan nan 49 45 42 42 39 37 36 33 28 26 23 24 24 23 22 24 29 nan nan nan nan nan nan nan nan nan nan nan nan nan nan nan nan nan nan nan nan nan nan
nan nan nan nan nan nan 48 46 44 41 38 39 35 31 31 31 27 25 27 27 25 29 nan nan nan nan nan nan nan nan nan nan nan nan nan nan nan nan nan nan nan nan nan
nan nan nan nan nan nan nan 49 47 45 42 39 38 36 33 33 30 29 29 30 29 29 28 nan nan nan nan nan nan nan nan nan nan nan nan nan nan nan nan 22 23 26 26
nan nan nan nan nan nan nan nan 50 49 43 43 41 38 34 36 35 33 32 32 31 31 30 30 nan nan nan nan nan nan nan nan nan nan nan nan nan nan nan nan 23 24 26
nan nan nan nan nan nan nan nan 52 50 46 44 46 39 38 40 37 34 35 36 37 34 32 31 nan nan nan nan nan nan nan nan nan nan nan nan nan nan nan nan nan 25 26
nan nan nan nan nan nan nan nan nan 56 53 55 54 49 44 43 41 42 39 39 40 37 37 34 30 nan nan nan nan nan nan nan nan nan nan nan nan nan nan nan nan 29 28
nan nan nan nan nan nan nan nan nan 59 60 58 58 58 50 47 38 43 40 39 38 39 37 nan 34 36 35 nan nan nan nan nan nan nan nan nan nan nan nan nan nan nan 33
nan nan nan nan nan nan nan nan nan 62 64 61 59 57 56 52 47 47 43 39 40 39 38 nan nan nan nan 31 nan nan nan nan nan nan nan nan nan nan nan nan nan nan nan
nan nan nan nan nan nan nan nan nan nan nan 63 62 55 53 51 45 41 48 44 42 38 41 42 39 36 nan nan nan nan nan nan nan nan nan nan nan nan nan nan nan nan nan
nan nan nan nan nan nan nan nan nan nan nan 65 64 62 59 53 49 52 37 48 46 43 41 42 41 41 39 nan nan nan nan nan nan nan nan nan nan nan nan nan nan nan 55
nan nan nan nan nan nan nan nan nan nan nan 71 69 66 59 58 58 49 51 47 48 48 50 47 44 40 43 nan nan nan nan nan nan nan nan nan nan nan 46 nan nan nan 57
nan nan nan nan nan nan nan nan nan nan nan nan 65 63 60 60 60 65 63 59 56 56 47 48 46 43 45 nan nan nan nan nan nan nan nan nan nan 47 48 48 nan nan nan
nan nan nan nan nan nan nan nan nan nan nan 65 63 60 59 60 58 58 56 53 53 52 53 51 48 48 48 48 52 nan nan 55 nan nan nan nan nan nan nan nan nan nan nan
nan nan nan nan nan nan nan nan nan nan nan 60 61 62 62 61 60 56 53 53 52 53 56 53 52 49 48 50 55 56 nan nan 55 59 nan nan 46 50 nan nan nan nan nan
Wind_Direction
246 247 259 266 271 273 272 271 275 283 280 285 294 301 306 304 297 297 308 318 317 321 nan nan 352 0 326 324 306 306 284 279 280 277 281 289 293 nan nan nan 353 316 312
212 269 266 266 267 269 272 269 271 276 278 278 285 291 296 304 307 300 294 315 314 295 nan nan 319 324 nan 316 303 297 nan 292 282 280 291 288 293 nan nan nan 309 nan nan
228 292 307 287 272 263 266 269 270 272 276 277 278 283 288 296 304 307 303 299 299 296 292 306 295 nan nan nan nan nan nan 294 289 nan nan 296 292 293 295 305 312 311 306
243 278 298 296 295 287 272 266 267 271 274 273 275 279 283 288 295 302 308 304 284 287 281 277 276 269 nan nan nan nan nan nan nan nan nan 307 nan 282 282 289 289 290 nan
253 271 282 290 298 296 289 281 270 266 267 269 270 272 277 284 289 295 298 293 284 277 276 262 nan nan nan nan nan nan nan nan nan nan nan nan nan nan nan nan nan nan nan
247 261 267 278 292 291 294 291 290 274 267 266 268 270 273 278 285 283 280 280 272 267 270 nan nan nan nan nan nan nan nan nan nan nan nan nan nan nan nan nan nan nan nan
231 238 264 270 282 289 293 295 300 297 279 268 270 274 274 274 277 275 274 275 275 276 277 nan nan nan nan nan nan nan nan nan nan nan nan nan nan nan nan nan nan nan nan
237 232 254 263 267 279 284 288 291 295 298 291 276 271 273 275 273 275 276 277 277 282 nan nan nan nan nan nan nan nan nan nan nan nan nan nan nan nan nan nan nan nan nan
238 240 244 256 261 263 268 275 280 283 281 282 293 285 276 271 270 275 277 277 278 279 282 286 nan nan nan nan nan nan nan nan nan nan nan nan nan nan nan nan nan nan nan
235 236 239 241 252 254 261 262 266 270 273 270 274 280 281 270 265 274 275 275 277 276 276 278 278 nan nan 262 nan nan nan nan nan nan nan nan nan nan nan nan nan nan nan
nan nan 235 239 241 251 255 258 260 259 261 263 267 264 271 279 283 275 271 270 272 277 nan 277 276 272 nan nan nan nan nan nan nan nan nan nan nan nan nan nan nan nan nan
nan nan nan 238 241 242 252 255 257 260 261 265 267 271 263 271 275 278 271 271 269 271 nan 276 275 269 nan nan nan nan nan nan nan nan nan nan nan nan nan nan nan nan nan
nan nan nan nan 240 244 248 251 249 250 254 256 264 266 265 259 258 263 265 267 267 nan nan nan nan nan nan nan nan nan nan nan nan nan nan nan nan nan nan nan nan nan nan
nan nan nan nan nan nan 246 249 252 253 253 253 254 261 257 257 260 261 263 269 269 269 nan nan nan nan nan nan nan nan nan nan nan nan nan nan nan nan nan nan nan nan nan
nan nan nan nan nan nan nan 246 247 254 254 258 257 254 258 262 262 265 265 266 268 267 268 nan nan nan nan nan nan nan nan nan nan nan nan nan nan nan nan 278 288 294 296
nan nan nan nan nan nan nan nan 247 248 257 251 255 257 254 253 259 264 266 268 269 266 268 272 nan nan nan nan nan nan nan nan nan nan nan nan nan nan nan nan 281 283 291
nan nan nan nan nan nan nan nan 245 243 240 247 250 257 260 253 258 261 258 266 267 265 268 264 nan nan nan nan nan nan nan nan nan nan nan nan nan nan nan nan nan 282 280
nan nan nan nan nan nan nan nan nan 241 243 244 246 251 256 256 260 261 257 262 264 263 263 260 262 nan nan nan nan nan nan nan nan nan nan nan nan nan nan nan nan 283 281
nan nan nan nan nan nan nan nan nan 245 240 241 245 245 251 253 255 255 259 260 263 261 262 nan 260 271 263 nan nan nan nan nan nan nan nan nan nan nan nan nan nan nan 283
nan nan nan nan nan nan nan nan nan 245 244 241 242 245 246 249 257 259 256 252 260 263 255 nan nan nan nan 278 nan nan nan nan nan nan nan nan nan nan nan nan nan nan nan
nan nan nan nan nan nan nan nan nan nan nan 245 244 246 247 247 250 264 252 254 260 263 258 263 270 279 nan nan nan nan nan nan nan nan nan nan nan nan nan nan nan nan nan
nan nan nan nan nan nan nan nan nan nan nan 244 244 245 247 247 244 247 263 259 264 262 267 268 273 272 274 nan nan nan nan nan nan nan nan nan nan nan nan nan nan nan 289
nan nan nan nan nan nan nan nan nan nan nan 240 242 242 247 248 246 245 248 248 255 260 262 267 274 280 272 nan nan nan nan nan nan nan nan nan nan nan 290 nan nan nan 289
nan nan nan nan nan nan nan nan nan nan nan nan 240 242 243 245 246 248 249 254 258 261 259 262 268 271 275 nan nan nan nan nan nan nan nan nan nan 277 283 282 nan nan nan
nan nan nan nan nan nan nan nan nan nan nan 239 236 240 241 245 245 247 249 254 252 248 254 258 269 274 271 278 279 nan nan 280 nan nan nan nan nan nan nan nan nan nan nan
nan nan nan nan nan nan nan nan nan nan nan 238 238 238 239 241 243 245 251 252 257 256 259 265 269 274 273 276 277 282 nan nan 275 270 nan nan 271 274 nan nan nan nan nan